GAOFEN 4

Last updated on Sept. 20, 2020, 5:45 a.m. UTC

1 41194U 15083A   20263.98348074 -.00000350  00000-0  00000-0 0  9991
2 41194   0.0128 180.8402 0002337 338.8915 299.3358  1.00272574 17473
UTC
Height (km)
Latitude
Longitude
Inclination
Orbital Period
UTC large
Height (km)
Speed (km/s)
/
Latitude / Longitude
Inclination (degrees)
Orbital Period (minutes)
Azimuth
Elevation
Range (km)
Doppler Factor
iOS Compass Heading
iOS Angle

Next 30 passes for location: Hong Kong

Rise time Rise Azimuth (degrees) Set time Set Azimuth (degrees) Duration Max altitude (degrees)

No matching passes for this satellites